Overview Statistics Trail Chart Weather Telemetry Raw packets
 

This is the latest recevied weather packets stored in our database for station/object OE3APM-13. If no packets are shown the sender has not sent any weather packets the latest 10 day(s).

<< 86 87 88 89 90 91 92 >>
Time Temp. Humidity Pressure Rain* Wind** Luminosity Snow
1787983352 15.56° C 85% 1017.9 hPa 0 mm - 171 W/m² -
1787983053 15.56° C 87% 1017.8 hPa 0 mm - 206 W/m² -
1787982752 15° C 88% 1017.7 hPa 0 mm - 183 W/m² -
1787982450 15° C 89% 1017.8 hPa 0 mm - 190 W/m² -
1787982150 15° C 89% 1017.8 hPa 0 mm - 167 W/m² -
1787981852 14.44° C 89% 1017.9 hPa 0 mm - 158 W/m² -
1787981548 14.44° C 89% 1017.9 hPa 0 mm - 118 W/m² -
1787981237 14.44° C 89% 1017.9 hPa 0 mm - 83 W/m² -
1787980932 14.44° C 89% 1017.9 hPa 0 mm - 74 W/m² -
1787980627 14.44° C 89% 1017.7 hPa 0 mm - 69 W/m² -
1787980325 14.44° C 89% 1017.7 hPa 0 mm - 23 W/m² -
1787980025 14.44° C 89% 1017.7 hPa 0 mm - 18 W/m² -
1787979726 14.44° C 89% 1017.6 hPa 0 mm - 12 W/m² -
1787979424 14.44° C 89% 1017.7 hPa 0 mm - 9 W/m² -
1787979123 14.44° C 89% 1017.6 hPa 0 mm - 9 W/m² -
1787978824 14.44° C 89% 1017.6 hPa 0 mm - 7 W/m² -
1787978524 15° C 89% 1017.8 hPa 0 mm - 0 W/m² -
1787978222 15° C 89% 1017.7 hPa 0 mm - 0 W/m² -
1787977922 15° C 89% 1017.7 hPa 0 mm - 0 W/m² -
1787977622 15° C 89% 1017.7 hPa 0 mm - 0 W/m² -
1787977323 15° C 89% 1017.8 hPa 0 mm - 0 W/m² -
1787977021 15° C 89% 1017.7 hPa 0 mm - 0 W/m² -
1787976722 15° C 89% 1017.7 hPa 0 mm - 0 W/m² -
1787976421 15° C 89% 1017.7 hPa 0 mm - 0 W/m² -
1787976122 15° C 89% 1017.5 hPa 0 mm - 0 W/m² -

* Rain latest hour (hover to see other rain measurements)
** Current wind speed in m/s (hover to see current wind gust speed)